{"data":{"norad_id":53010,"epoch":"2026-09-20T01:35:00.258144Z","epoch_age_seconds":106324,"freshness":"FRESH","line1":"1 53010U 22076AA  26263.06597521 -.00000424  00000+0 -14291-5 0  9993","line2":"2 53010  53.1591 286.0983 0001107  89.8708 270.2421 15.34387972232408","mean_motion":15.34387972,"eccentricity":0.0001107,"inclination_deg":53.1591,"raan_deg":286.0983,"arg_perigee_deg":89.8708,"mean_anomaly_deg":270.2421,"bstar":-1.4291e-6,"rev_number":23240,"period_min":93.848493749793,"perigee_km":461.98170521931,"apogee_km":463.49627516354,"semimajor_km":6840.8759901914,"source":"CELESTRAK","updated_at":"2026-09-20T09:00:40.143683Z"}}